Project,Study,Ord_Occ,Event_Num,Date_Time_UTC,Date_Time_PST,Lat_Dec,Lon_Dec,Sta_ID,Line,Sta,Depth,Pressure,Temp0,Temp1,Salt0,CorrSalt0,Salt1,CorrSalt1,O2ml/L,AveCorrO2ml/L,StaCorrO2ml/L,FluorV,AveEstChl,StaEstChl,ISUSV,AveEstNO3,StaEstNO3,SigThetaTS0,SigThetaTS1,BAT,XMiss,SPAR,PAR,BTL_Depth,BTL_Temp,BTL_Salt,BTL_O2ml/L,BTL_Chl,BTL_Pha,BTL_NO3
CalCOFI,0704JD,50,463,13-Apr-2007 18:47:28,13-Apr-2007 10:47:28,34.27850,-120.02418,081.8 046.9,081.8,046.9,571.000,575.917,6.4405,6.4408,34.2728,34.2710,34.2697,34.2698,0.30494,0.35,0.33,0.0281,,,1.2703,36.02,36.320,26.9281,26.9256,0.5583,86.9722,5.2876e+00,9.9990e+03,,,,,,,
CalCOFI,0704JD,50,463,13-Apr-2007 18:47:30,13-Apr-2007 10:47:30,34.27850,-120.02418,081.8 046.9,081.8,046.9,570.000,574.907,6.4418,6.4419,34.2726,34.2708,34.2700,34.2701,0.30556,0.35,0.34,0.0281,,,1.2259,34.63,34.843,26.9277,26.9257,0.5610,86.9138,5.4958e+00,9.9990e+03,,,,,,,
CalCOFI,0704JD,50,463,13-Apr-2007 18:47:32,13-Apr-2007 10:47:32,34.27850,-120.02418,081.8 046.9,081.8,046.9,569.000,573.897,6.4419,6.4419,34.2726,34.2708,34.2700,34.2701,0.30531,0.35,0.33,0.0278,,,1.2491,35.35,35.615,26.9277,26.9256,0.5602,86.9313,5.1968e+00,9.9990e+03,569,6.44 ,34.271,  .33,,,35.1
CalCOFI,0704JD,50,463,13-Apr-2007 18:47:56,13-Apr-2007 10:47:56,34.27856,-120.02418,081.8 046.9,081.8,046.9,568.000,572.887,6.4415,6.4414,34.2725,34.2707,34.2700,34.2701,0.30504,0.35,0.33,0.0280,,,1.2328,34.84,35.073,26.9277,26.9257,0.5603,86.9298,5.7334e+00,9.9990e+03,,,,,,,
CalCOFI,0704JD,50,463,13-Apr-2007 18:48:39,13-Apr-2007 10:48:39,34.27866,-120.02418,081.8 046.9,081.8,046.9,567.000,571.877,6.4412,6.4411,34.2723,34.2705,34.2700,34.2701,0.30324,0.34,0.33,0.0280,,,1.2234,34.55,34.760,26.9275,26.9257,0.5592,86.9529,5.4242e+00,9.9990e+03,,,,,,,
CalCOFI,0704JD,50,463,13-Apr-2007 18:48:41,13-Apr-2007 10:48:41,34.27866,-120.02418,081.8 046.9,081.8,046.9,566.000,570.867,6.4419,6.4418,34.2723,34.2705,34.2699,34.2700,0.30336,0.34,0.33,0.0280,,,1.2425,35.15,35.395,26.9274,26.9256,0.5607,86.9200,5.5544e+00,9.9990e+03,,,,,,,
CalCOFI,0704JD,50,463,13-Apr-2007 18:48:42,13-Apr-2007 10:48:42,34.27866,-120.02418,081.8 046.9,081.8,046.9,565.000,569.857,6.4427,6.4427,34.2722,34.2704,34.2698,34.2699,0.30419,0.34,0.33,0.0280,,,1.2275,34.68,34.896,26.9272,26.9254,0.5596,86.9452,5.5127e+00,9.9990e+03,,,,,,,
CalCOFI,0704JD,50,463,13-Apr-2007 18:48:45,13-Apr-2007 10:48:45,34.27866,-120.02418,081.8 046.9,081.8,046.9,564.000,568.847,6.4412,6.4412,34.2723,34.2705,34.2700,34.2701,0.30375,0.34,0.33,0.0278,,,1.2288,34.72,34.940,26.9275,26.9257,0.5610,86.9140,5.2440e+00,9.9990e+03,,,,,,,
CalCOFI,0704JD,50,463,13-Apr-2007 18:48:47,13-Apr-2007 10:48:47,34.27866,-120.02418,081.8 046.9,081.8,046.9,563.000,567.837,6.4409,6.4416,34.2723,34.2705,34.2699,34.2700,0.30374,0.34,0.33,0.0285,,,1.2583,35.64,35.921,26.9276,26.9255,0.5595,86.9462,5.4626e+00,9.9990e+03,,,,,,,
CalCOFI,0704JD,50,463,13-Apr-2007 18:48:49,13-Apr-2007 10:48:49,34.27866,-120.02418,081.8 046.9,081.8,046.9,562.000,566.827,6.4432,6.4437,34.2721,34.2703,34.2697,34.2698,0.30419,0.34,0.33,0.0277,,,1.2255,34.61,34.830,26.9270,26.9251,0.5585,86.9693,4.8280e+00,9.9990e+03,,,,,,,
CalCOFI,0704JD,50,463,13-Apr-2007 18:48:50,13-Apr-2007 10:48:50,34.27866,-120.02418,081.8 046.9,081.8,046.9,561.000,565.817,6.4441,6.4441,34.2719,34.2701,34.2696,34.2697,0.30430,0.34,0.33,0.0275,,,1.2408,35.09,35.339,26.9268,26.9250,0.5563,87.0152,5.3883e+00,9.9990e+03,,,,,,,
CalCOFI,0704JD,50,463,13-Apr-2007 18:48:52,13-Apr-2007 10:48:52,34.27866,-120.02418,081.8 046.9,081.8,046.9,560.000,564.807,6.4444,6.4446,34.2720,34.2702,34.2697,34.2698,0.30472,0.34,0.33,0.0274,,,1.2550,35.54,35.811,26.9268,26.9249,0.5579,86.9818,5.3382e+00,9.9990e+03,,,,,,,
CalCOFI,0704JD,50,463,13-Apr-2007 18:48:54,13-Apr-2007 10:48:54,34.27866,-120.02418,081.8 046.9,081.8,046.9,559.000,563.797,6.4453,6.4452,34.2718,34.2700,34.2697,34.2698,0.30469,0.34,0.33,0.0278,,,1.2474,35.30,35.558,26.9265,26.9248,0.5567,87.0073,5.6213e+00,9.9990e+03,,,,,,,
CalCOFI,0704JD,50,463,13-Apr-2007 18:48:54,13-Apr-2007 10:48:54,34.27866,-120.02418,081.8 046.9,081.8,046.9,558.000,562.787,6.4463,6.4463,34.2720,34.2702,34.2697,34.2698,0.30835,0.35,0.34,0.0280,,,1.2463,35.27,35.522,26.9265,26.9247,0.5560,87.0238,5.1817e+00,9.9990e+03,,,,,,,
CalCOFI,0704JD,50,463,13-Apr-2007 18:48:56,13-Apr-2007 10:48:56,34.27866,-120.02418,081.8 046.9,081.8,046.9,557.000,561.777,6.4465,6.4465,34.2719,34.2701,34.2697,34.2698,0.30656,0.35,0.34,0.0273,,,1.2457,35.25,35.502,26.9264,26.9247,0.5586,86.9666,5.3107e+00,9.9990e+03,,,,,,,
CalCOFI,0704JD,50,463,13-Apr-2007 18:48:58,13-Apr-2007 10:48:58,34.27866,-120.02418,081.8 046.9,081.8,046.9,556.000,560.767,6.4474,6.4475,34.2718,34.2700,34.2695,34.2696,0.30518,0.35,0.33,0.0277,,,1.2614,35.74,36.024,26.9262,26.9244,0.5566,87.0098,5.4306e+00,9.9990e+03,,,,,,,
CalCOFI,0704JD,50,463,13-Apr-2007 18:48:59,13-Apr-2007 10:48:59,34.27866,-120.02418,081.8 046.9,081.8,046.9,555.000,559.757,6.4490,6.4489,34.2716,34.2698,34.2695,34.2696,0.31099,0.35,0.34,0.0282,,,1.2431,35.17,35.415,26.9258,26.9242,0.5567,87.0070,5.4044e+00,9.9990e+03,,,,,,,
CalCOFI,0704JD,50,463,13-Apr-2007 18:49:00,13-Apr-2007 10:49:00,34.27866,-120.02418,081.8 046.9,081.8,046.9,554.000,558.747,6.4490,6.4490,34.2715,34.2697,34.2694,34.2695,0.30513,0.35,0.33,0.0281,,,1.2290,34.72,34.946,26.9258,26.9241,0.5595,86.9471,5.5311e+00,9.9990e+03,,,,,,,
CalCOFI,0704JD,50,463,13-Apr-2007 18:49:02,13-Apr-2007 10:49:02,34.27866,-120.02418,081.8 046.9,081.8,046.9,553.000,557.738,6.4490,6.4490,34.2716,34.2698,34.2694,34.2695,0.30428,0.34,0.33,0.0273,,,1.2477,35.31,35.568,26.9258,26.9240,0.5586,86.9658,5.5310e+00,9.9990e+03,,,,,,,
CalCOFI,0704JD,50,463,13-Apr-2007 18:49:04,13-Apr-2007 10:49:04,34.27866,-120.02418,081.8 046.9,081.8,046.9,552.000,556.728,6.4493,6.4492,34.2715,34.2697,34.2693,34.2694,0.31769,0.36,0.35,0.0282,,,1.2735,36.12,36.426,26.9257,26.9239,0.5568,87.0053,5.8321e+00,9.9990e+03,,,,,,,
CalCOFI,0704JD,50,463,13-Apr-2007 18:49:04,13-Apr-2007 10:49:04,34.27866,-120.02418,081.8 046.9,081.8,046.9,551.000,555.718,6.4499,6.4498,34.2716,34.2698,34.2693,34.2694,0.31866,0.36,0.35,0.0270,,,1.2510,35.41,35.678,26.9256,26.9239,0.5581,86.9766,5.7582e+00,9.9990e+03,,,,,,,
CalCOFI,0704JD,50,463,13-Apr-2007 18:49:06,13-Apr-2007 10:49:06,34.27866,-120.02418,081.8 046.9,081.8,046.9,550.000,554.708,6.4507,6.4508,34.2715,34.2697,34.2692,34.2693,0.31966,0.36,0.35,0.0271,,,1.2515,35.43,35.694,26.9254,26.9236,0.5587,86.9648,5.0499e+00,9.9990e+03,,,,,,,
CalCOFI,0704JD,50,463,13-Apr-2007 18:49:06,13-Apr-2007 10:49:06,34.27866,-120.02418,081.8 046.9,081.8,046.9,549.000,553.698,6.4538,6.4539,34.2714,34.2696,34.2692,34.2693,0.31787,0.36,0.35,0.0270,,,1.2424,35.14,35.392,26.9249,26.9232,0.5600,86.9362,5.5423e+00,9.9990e+03,,,,,,,
CalCOFI,0704JD,50,463,13-Apr-2007 18:49:07,13-Apr-2007 10:49:07,34.27866,-120.02418,081.8 046.9,081.8,046.9,548.000,552.688,6.4552,6.4550,34.2713,34.2695,34.2691,34.2692,0.30710,0.35,0.34,0.0271,,,1.2036,33.93,34.102,26.9247,26.9230,0.5610,86.9147,5.8339e+00,9.9990e+03,,,,,,,
CalCOFI,0704JD,50,463,13-Apr-2007 18:49:08,13-Apr-2007 10:49:08,34.27866,-120.02418,081.8 046.9,081.8,046.9,547.000,551.678,6.4557,6.4557,34.2713,34.2695,34.2690,34.2691,0.31959,0.36,0.35,0.0269,,,1.2527,35.47,35.734,26.9246,26.9228,0.5605,86.9255,5.4812e+00,9.9990e+03,,,,,,,
CalCOFI,0704JD,50,463,13-Apr-2007 18:49:10,13-Apr-2007 10:49:10,34.27866,-120.02418,081.8 046.9,081.8,046.9,546.000,550.668,6.4564,6.4572,34.2712,34.2694,34.2689,34.2690,0.31317,0.36,0.34,0.0272,,,1.2404,35.08,35.325,26.9244,26.9225,0.5595,86.9459,5.4405e+00,9.9990e+03,,,,,,,
CalCOFI,0704JD,50,463,13-Apr-2007 18:49:12,13-Apr-2007 10:49:12,34.27866,-120.02418,081.8 046.9,081.8,046.9,545.000,549.658,6.4600,6.4605,34.2706,34.2688,34.2683,34.2684,0.31546,0.36,0.35,0.0274,,,1.2548,35.53,35.804,26.9234,26.9216,0.5592,86.9527,5.7295e+00,9.9990e+03,,,,,,,
CalCOFI,0704JD,50,463,13-Apr-2007 18:49:14,13-Apr-2007 10:49:14,34.27866,-120.02418,081.8 046.9,081.8,046.9,544.000,548.648,6.4610,6.4609,34.2703,34.2685,34.2682,34.2683,0.31288,0.35,0.34,0.0272,,,1.2217,34.50,34.704,26.9231,26.9215,0.5589,86.9600,5.6238e+00,9.9990e+03,,,,,,,
CalCOFI,0704JD,50,463,13-Apr-2007 18:49:14,13-Apr-2007 10:49:14,34.27866,-120.02418,081.8 046.9,081.8,046.9,543.000,547.639,6.4613,6.4613,34.2704,34.2686,34.2682,34.2683,0.31124,0.35,0.34,0.0278,,,1.2296,34.74,34.966,26.9231,26.9214,0.5586,86.9660,5.5845e+00,9.9990e+03,,,,,,,
CalCOFI,0704JD,50,463,13-Apr-2007 18:49:15,13-Apr-2007 10:49:15,34.27866,-120.02418,081.8 046.9,081.8,046.9,542.000,546.629,6.4633,6.4635,34.2702,34.2684,34.2680,34.2681,0.30973,0.35,0.34,0.0280,,,1.2057,33.99,34.171,26.9227,26.9209,0.5612,86.9106,4.9412e+00,9.9990e+03,,,,,,,
CalCOFI,0704JD,50,463,13-Apr-2007 18:49:16,13-Apr-2007 10:49:16,34.27866,-120.02418,081.8 046.9,081.8,046.9,541.000,545.619,6.4661,6.4662,34.2701,34.2683,34.2678,34.2679,0.30937,0.35,0.34,0.0280,,,1.1960,33.69,33.849,26.9222,26.9204,0.5628,86.8750,5.6586e+00,9.9990e+03,,,,,,,
CalCOFI,0704JD,50,463,13-Apr-2007 18:49:17,13-Apr-2007 10:49:17,34.27866,-120.02418,081.8 046.9,081.8,046.9,540.000,544.609,6.4698,6.4698,34.2699,34.2681,34.2677,34.2678,0.30979,0.35,0.34,0.0277,,,1.1871,33.41,33.553,26.9215,26.9198,0.5625,86.8818,5.6634e+00,9.9990e+03,,,,,,,
CalCOFI,0704JD,50,463,13-Apr-2007 18:49:18,13-Apr-2007 10:49:18,34.27866,-120.02418,081.8 046.9,081.8,046.9,539.000,543.599,6.4721,6.4722,34.2696,34.2678,34.2674,34.2675,0.30859,0.35,0.34,0.0270,,,1.1867,33.40,33.540,26.9210,26.9193,0.5628,86.8760,5.7522e+00,9.9990e+03,,,,,,,
CalCOFI,0704JD,50,463,13-Apr-2007 18:49:20,13-Apr-2007 10:49:20,34.27866,-120.02418,081.8 046.9,081.8,046.9,538.000,542.589,6.4671,6.4672,34.2700,34.2682,34.2679,34.2680,0.30722,0.35,0.34,0.0278,,,1.1892,33.48,33.623,26.9220,26.9203,0.5632,86.8667,5.6142e+00,9.9990e+03,,,,,,,
CalCOFI,0704JD,50,463,13-Apr-2007 18:49:22,13-Apr-2007 10:49:22,34.27866,-120.02418,081.8 046.9,081.8,046.9,537.000,541.579,6.4693,6.4699,34.2698,34.2680,34.2675,34.2676,0.30702,0.35,0.34,0.0279,,,1.1945,33.64,33.799,26.9215,26.9196,0.5628,86.8746,5.3936e+00,9.9990e+03,,,,,,,
CalCOFI,0704JD,50,463,13-Apr-2007 18:49:23,13-Apr-2007 10:49:23,34.27866,-120.02418,081.8 046.9,081.8,046.9,536.000,540.570,6.4761,6.4762,34.2695,34.2677,34.2671,34.2672,0.30664,0.35,0.34,0.0272,,,1.2154,34.30,34.494,26.9204,26.9185,0.5608,86.9194,5.4993e+00,9.9990e+03,,,,,,,
CalCOFI,0704JD,50,463,13-Apr-2007 18:49:24,13-Apr-2007 10:49:24,34.27866,-120.02418,081.8 046.9,081.8,046.9,535.000,539.560,6.4863,6.4867,34.2687,34.2669,34.2665,34.2666,0.30619,0.35,0.34,0.0275,,,1.2251,34.60,34.817,26.9184,26.9166,0.5616,86.9000,5.5469e+00,9.9990e+03,,,,,,,
CalCOFI,0704JD,50,463,13-Apr-2007 18:49:25,13-Apr-2007 10:49:25,34.27866,-120.02418,081.8 046.9,081.8,046.9,534.000,538.550,6.4892,6.4894,34.2683,34.2665,34.2662,34.2663,0.30438,0.34,0.33,0.0273,,,1.1784,33.14,33.264,26.9177,26.9160,0.5635,86.8602,5.3724e+00,9.9990e+03,,,,,,,
CalCOFI,0704JD,50,463,13-Apr-2007 18:49:25,13-Apr-2007 10:49:25,34.27866,-120.02418,081.8 046.9,081.8,046.9,533.000,537.540,6.4912,6.4911,34.2680,34.2662,34.2661,34.2662,0.30331,0.34,0.33,0.0273,,,1.1873,33.42,33.560,26.9172,26.9157,0.5646,86.8358,5.1153e+00,9.9990e+03,,,,,,,
CalCOFI,0704JD,50,463,13-Apr-2007 18:49:26,13-Apr-2007 10:49:26,34.27866,-120.02418,081.8 046.9,081.8,046.9,532.000,536.530,6.4916,6.4917,34.2680,34.2662,34.2660,34.2661,0.30309,0.34,0.33,0.0275,,,1.2075,34.05,34.231,26.9171,26.9156,0.5658,86.8104,5.5177e+00,9.9990e+03,532,6.49 ,34.266,  .31,,,33.8
CalCOFI,0704JD,50,463,13-Apr-2007 18:49:27,13-Apr-2007 10:49:27,34.27866,-120.02418,081.8 046.9,081.8,046.9,531.000,535.521,6.4928,6.4924,34.2681,34.2663,34.2659,34.2660,0.30286,0.34,0.33,0.0280,,,1.1919,33.56,33.713,26.9170,26.9154,0.5662,86.8015,5.5950e+00,9.9990e+03,,,,,,,
CalCOFI,0704JD,50,463,13-Apr-2007 18:50:23,13-Apr-2007 10:50:23,34.27879,-120.02418,081.8 046.9,081.8,046.9,530.000,534.511,6.4974,6.4981,34.2669,34.2651,34.2649,34.2650,0.28814,0.32,0.31,0.0282,,,1.1787,33.15,33.274,26.9154,26.9138,0.5723,86.6686,5.6271e+00,9.9990e+03,,,,,,,
CalCOFI,0704JD,50,463,13-Apr-2007 18:50:35,13-Apr-2007 10:50:35,34.27882,-120.02418,081.8 046.9,081.8,046.9,529.000,533.501,6.5042,6.5050,34.2665,34.2647,34.2644,34.2645,0.28152,0.32,0.30,0.0278,,,1.1828,33.28,33.410,26.9142,26.9125,0.5739,86.6332,5.7066e+00,9.9990e+03,,,,,,,
CalCOFI,0704JD,50,463,13-Apr-2007 18:50:37,13-Apr-2007 10:50:37,34.27882,-120.02418,081.8 046.9,081.8,046.9,528.000,532.491,6.5074,6.5074,34.2662,34.2644,34.2645,34.2646,0.28063,0.31,0.30,0.0282,,,1.1591,32.53,32.622,26.9136,26.9122,0.5756,86.5984,5.5502e+00,9.9990e+03,,,,,,,
CalCOFI,0704JD,50,463,13-Apr-2007 18:50:39,13-Apr-2007 10:50:39,34.27882,-120.02418,081.8 046.9,081.8,046.9,527.000,531.481,6.5084,6.5082,34.2662,34.2644,34.2645,34.2646,0.28265,0.32,0.31,0.0277,,,1.1461,32.13,32.190,26.9134,26.9121,0.5745,86.6208,5.6600e+00,9.9990e+03,,,,,,,
CalCOFI,0704JD,50,463,13-Apr-2007 18:50:41,13-Apr-2007 10:50:41,34.27882,-120.02418,081.8 046.9,081.8,046.9,526.000,530.471,6.5098,6.5097,34.2662,34.2644,34.2644,34.2645,0.28953,0.33,0.31,0.0283,,,1.1825,33.27,33.400,26.9132,26.9119,0.5703,86.7127,5.6395e+00,9.9990e+03,,,,,,,
CalCOFI,0704JD,50,463,13-Apr-2007 18:50:42,13-Apr-2007 10:50:42,34.27882,-120.02418,081.8 046.9,081.8,046.9,525.000,529.462,6.5154,6.5157,34.2667,34.2649,34.2644,34.2645,0.29852,0.34,0.33,0.0273,,,1.1828,33.28,33.410,26.9129,26.9110,0.5687,86.7472,5.3754e+00,9.9990e+03,,,,,,,
CalCOFI,0704JD,50,463,13-Apr-2007 18:50:43,13-Apr-2007 10:50:43,34.27882,-120.02418,081.8 046.9,081.8,046.9,524.000,528.452,6.5231,6.5229,34.2664,34.2646,34.2645,34.2646,0.30469,0.34,0.33,0.0269,,,1.1436,32.05,32.106,26.9116,26.9101,0.5546,87.0534,5.4931e+00,9.9990e+03,,,,,,,
CalCOFI,0704JD,50,463,13-Apr-2007 18:50:45,13-Apr-2007 10:50:45,34.27882,-120.02418,081.8 046.9,081.8,046.9,523.000,527.442,6.5256,6.5257,34.2661,34.2643,34.2643,34.2644,0.31046,0.35,0.34,0.0268,,,1.1759,33.06,33.180,26.9111,26.9096,0.5531,87.0850,5.5338e+00,9.9990e+03,,,,,,,
CalCOFI,0704JD,50,463,13-Apr-2007 18:50:47,13-Apr-2007 10:50:47,34.27882,-120.02418,081.8 046.9,081.8,046.9,522.000,526.432,6.5269,6.5273,34.2660,34.2642,34.2642,34.2643,0.31480,0.36,0.35,0.0268,,,1.1995,33.80,33.965,26.9108,26.9093,0.5492,87.1700,5.7598e+00,9.9990e+03,,,,,,,
CalCOFI,0704JD,50,463,13-Apr-2007 18:50:49,13-Apr-2007 10:50:49,34.27882,-120.02418,081.8 046.9,081.8,046.9,521.000,525.423,6.5291,6.5315,34.2659,34.2641,34.2637,34.2638,0.31764,0.36,0.35,0.0273,,,1.1661,32.75,32.855,26.9104,26.9084,0.5484,87.1892,5.6700e+00,9.9990e+03,,,,,,,
CalCOFI,0704JD,50,463,13-Apr-2007 18:50:50,13-Apr-2007 10:50:50,34.27882,-120.02418,081.8 046.9,081.8,046.9,520.000,524.413,6.5375,6.5378,34.2653,34.2635,34.2635,34.2636,0.31796,0.36,0.35,0.0262,,,1.1827,33.27,33.407,26.9088,26.9074,0.5442,87.2803,5.4721e+00,9.9990e+03,,,,,,,
CalCOFI,0704JD,50,463,13-Apr-2007 18:50:52,13-Apr-2007 10:50:52,34.27882,-120.02418,081.8 046.9,081.8,046.9,519.000,523.403,6.5440,6.5444,34.2649,34.2631,34.2630,34.2631,0.31707,0.36,0.35,0.0265,,,1.1916,33.55,33.703,26.9076,26.9061,0.5448,87.2662,5.4751e+00,9.9990e+03,,,,,,,
CalCOFI,0704JD,50,463,13-Apr-2007 18:50:53,13-Apr-2007 10:50:53,34.27882,-120.02418,081.8 046.9,081.8,046.9,518.000,522.393,6.5489,6.5493,34.2644,34.2626,34.2625,34.2626,0.31504,0.36,0.35,0.0268,,,1.1739,33.00,33.114,26.9066,26.9050,0.5461,87.2389,5.2330e+00,9.9990e+03,,,,,,,
CalCOFI,0704JD,50,463,13-Apr-2007 18:50:54,13-Apr-2007 10:50:54,34.27882,-120.02418,081.8 046.9,081.8,046.9,517.000,521.384,6.5518,6.5519,34.2640,34.2622,34.2623,34.2624,0.31457,0.36,0.35,0.0269,,,1.1928,33.59,33.742,26.9058,26.9045,0.5480,87.1966,5.4489e+00,9.9990e+03,,,,,,,
CalCOFI,0704JD,50,463,13-Apr-2007 18:50:56,13-Apr-2007 10:50:56,34.27882,-120.02418,081.8 046.9,081.8,046.9,516.000,520.374,6.5552,6.5550,34.2640,34.2622,34.2622,34.2623,0.31489,0.36,0.35,0.0269,,,1.2014,33.86,34.028,26.9054,26.9040,0.5462,87.2354,5.7226e+00,9.9990e+03,,,,,,,
CalCOFI,0704JD,50,463,13-Apr-2007 18:50:59,13-Apr-2007 10:50:59,34.27882,-120.02418,081.8 046.9,081.8,046.9,515.000,519.364,6.5553,6.5569,34.2638,34.2620,34.2620,34.2621,0.31427,0.36,0.35,0.0269,,,1.1812,33.23,33.357,26.9052,26.9036,0.5451,87.2609,5.6491e+00,9.9990e+03,,,,,,,
CalCOFI,0704JD,50,463,13-Apr-2007 18:51:00,13-Apr-2007 10:51:00,34.27882,-120.02418,081.8 046.9,081.8,046.9,514.000,518.354,6.5638,6.5652,34.2633,34.2615,34.2615,34.2616,0.31641,0.36,0.35,0.0269,,,1.1610,32.59,32.685,26.9037,26.9021,0.5443,87.2774,5.5163e+00,9.9990e+03,,,,,,,
CalCOFI,0704JD,50,463,13-Apr-2007 18:51:02,13-Apr-2007 10:51:02,34.27882,-120.02418,081.8 046.9,081.8,046.9,513.000,517.345,6.5696,6.5696,34.2633,34.2615,34.2616,34.2617,0.31839,0.36,0.35,0.0265,,,1.1871,33.41,33.553,26.9029,26.9016,0.5426,87.3151,5.5729e+00,9.9990e+03,,,,,,,
CalCOFI,0704JD,50,463,13-Apr-2007 18:51:09,13-Apr-2007 10:51:09,34.27883,-120.02417,081.8 046.9,081.8,046.9,512.000,516.335,6.5708,6.5711,34.2632,34.2614,34.2616,34.2617,0.31922,0.36,0.35,0.0265,,,1.1940,33.63,33.782,26.9027,26.9014,0.5421,87.3250,5.4632e+00,9.9990e+03,512,6.58 ,34.261,  .36,,,33.8
CalCOFI,0704JD,50,463,13-Apr-2007 18:52:34,13-Apr-2007 10:52:34,34.27901,-120.02399,081.8 046.9,081.8,046.9,511.000,515.325,6.5845,6.5845,34.2624,34.2606,34.2606,34.2607,0.32562,0.37,0.36,0.0266,,,1.1963,33.70,33.859,26.9003,26.8988,0.5404,87.3624,5.3368e+00,9.9990e+03,,,,,,,
CalCOFI,0704JD,50,463,13-Apr-2007 18:52:29,13-Apr-2007 10:52:29,34.27900,-120.02400,081.8 046.9,081.8,046.9,510.000,514.315,6.5993,6.5999,34.2622,34.2604,34.2603,34.2604,0.32939,0.38,0.37,0.0268,,,1.1814,33.23,33.363,26.8981,26.8965,0.5371,87.4359,5.7667e+00,9.9990e+03,,,,,,,
CalCOFI,0704JD,50,463,13-Apr-2007 18:52:31,13-Apr-2007 10:52:31,34.27900,-120.02400,081.8 046.9,081.8,046.9,509.000,513.306,6.6029,6.6029,34.2621,34.2603,34.2607,34.2608,0.33258,0.38,0.37,0.0264,,,1.1751,33.04,33.154,26.8975,26.8964,0.5365,87.4486,5.5927e+00,9.9990e+03,,,,,,,
CalCOFI,0704JD,50,463,13-Apr-2007 18:52:31,13-Apr-2007 10:52:31,34.27900,-120.02400,081.8 046.9,081.8,046.9,508.000,512.296,6.6061,6.6071,34.2623,34.2605,34.2608,34.2609,0.33849,0.39,0.38,0.0266,,,1.1723,32.95,33.061,26.8973,26.8959,0.5360,87.4583,5.2119e+00,9.9990e+03,,,,,,,
CalCOFI,0704JD,50,463,13-Apr-2007 18:52:33,13-Apr-2007 10:52:33,34.27900,-120.02400,081.8 046.9,081.8,046.9,507.000,511.286,6.6138,6.6134,34.2628,34.2610,34.2611,34.2612,0.34618,0.40,0.39,0.0263,,,1.1813,33.23,33.360,26.8966,26.8953,0.5334,87.5166,6.1879e+00,9.9990e+03,,,,,,,
CalCOFI,0704JD,50,463,13-Apr-2007 18:52:36,13-Apr-2007 10:52:36,34.27900,-120.02400,081.8 046.9,081.8,046.9,506.000,510.277,6.6176,6.6224,34.2629,34.2611,34.2613,34.2614,0.35615,0.41,0.40,0.0264,,,1.2132,34.23,34.421,26.8962,26.8943,0.5327,87.5323,5.9591e+00,9.9990e+03,,,,,,,
CalCOFI,0704JD,50,463,13-Apr-2007 18:52:38,13-Apr-2007 10:52:38,34.27900,-120.02400,081.8 046.9,081.8,046.9,505.000,509.267,6.6417,6.6510,34.2628,34.2610,34.2602,34.2603,0.37080,0.43,0.42,0.0262,,,1.2150,34.29,34.481,26.8929,26.8896,0.5282,87.6307,5.5740e+00,9.9990e+03,,,,,,,
CalCOFI,0704JD,50,463,13-Apr-2007 18:52:39,13-Apr-2007 10:52:39,34.27900,-120.02400,081.8 046.9,081.8,046.9,504.000,508.257,6.6723,6.6727,34.2614,34.2596,34.2599,34.2600,0.38088,0.44,0.43,0.0262,,,1.1840,33.31,33.450,26.8877,26.8865,0.5195,87.8196,5.8271e+00,9.9990e+03,,,,,,,
CalCOFI,0704JD,50,463,13-Apr-2007 18:52:41,13-Apr-2007 10:52:41,34.27900,-120.02400,081.8 046.9,081.8,046.9,503.000,507.248,6.6818,6.6825,34.2612,34.2594,34.2596,34.2597,0.38844,0.45,0.44,0.0259,,,1.2180,34.38,34.580,26.8863,26.8849,0.5191,87.8286,5.8258e+00,9.9990e+03,,,,,,,
CalCOFI,0704JD,50,463,13-Apr-2007 18:52:42,13-Apr-2007 10:52:42,34.27900,-120.02400,081.8 046.9,081.8,046.9,502.000,506.238,6.6977,6.6992,34.2611,34.2593,34.2589,34.2590,0.39629,0.46,0.45,0.0261,,,1.2345,34.90,35.129,26.8840,26.8821,0.5178,87.8571,5.5473e+00,9.9990e+03,,,,,,,
CalCOFI,0704JD,50,463,13-Apr-2007 18:52:44,13-Apr-2007 10:52:44,34.27900,-120.02400,081.8 046.9,081.8,046.9,501.000,505.228,6.7243,6.7255,34.2602,34.2584,34.2584,34.2585,0.40230,0.47,0.46,0.0258,,,1.2525,35.46,35.728,26.8798,26.8782,0.5164,87.8891,5.8736e+00,9.9990e+03,,,,,,,
CalCOFI,0704JD,50,463,13-Apr-2007 18:52:46,13-Apr-2007 10:52:46,34.27900,-120.02400,081.8 046.9,081.8,046.9,500.000,504.219,6.7351,6.7414,34.2592,34.2574,34.2575,34.2576,0.40383,0.47,0.46,0.0261,,,1.2684,35.96,36.256,26.8775,26.8753,0.5155,87.9076,5.5563e+00,9.9990e+03,,,,,,,
CalCOFI,0704JD,50,463,13-Apr-2007 18:52:48,13-Apr-2007 10:52:48,34.27900,-120.02400,081.8 046.9,081.8,046.9,499.000,503.209,6.7517,6.7518,34.2585,34.2567,34.2568,34.2569,0.40088,0.46,0.46,0.0268,,,1.2512,35.42,35.684,26.8748,26.8734,0.5166,87.8848,5.3999e+00,9.9990e+03,,,,,,,
CalCOFI,0704JD,50,463,13-Apr-2007 18:52:48,13-Apr-2007 10:52:48,34.27900,-120.02400,081.8 046.9,081.8,046.9,498.000,502.199,6.7573,6.7572,34.2579,34.2561,34.2566,34.2567,0.39711,0.46,0.45,0.0266,,,1.2671,35.92,36.213,26.8736,26.8725,0.5176,87.8617,5.5507e+00,9.9990e+03,,,,,,,
CalCOFI,0704JD,50,463,13-Apr-2007 18:52:50,13-Apr-2007 10:52:50,34.27900,-120.02400,081.8 046.9,081.8,046.9,497.000,501.190,6.7600,6.7602,34.2576,34.2558,34.2563,34.2564,0.39454,0.46,0.45,0.0263,,,1.2465,35.27,35.528,26.8729,26.8719,0.5184,87.8436,5.8884e+00,9.9990e+03,,,,,,,
CalCOFI,0704JD,50,463,13-Apr-2007 18:52:53,13-Apr-2007 10:52:53,34.27900,-120.02400,081.8 046.9,081.8,046.9,496.000,500.180,6.7547,6.7561,34.2579,34.2561,34.2562,34.2563,0.39063,0.45,0.44,0.0264,,,1.2542,35.51,35.784,26.8739,26.8724,0.5198,87.8148,5.7199e+00,9.9990e+03,,,,,,,
CalCOFI,0704JD,50,463,13-Apr-2007 18:52:54,13-Apr-2007 10:52:54,34.27900,-120.02400,081.8 046.9,081.8,046.9,495.000,499.170,6.7714,6.7705,34.2574,34.2556,34.2557,34.2558,0.38899,0.45,0.44,0.0265,,,1.2391,35.04,35.282,26.8712,26.8700,0.5221,87.7642,5.4509e+00,9.9990e+03,,,,,,,
CalCOFI,0704JD,50,463,13-Apr-2007 18:52:54,13-Apr-2007 10:52:54,34.27900,-120.02400,081.8 046.9,081.8,046.9,494.000,498.161,6.7855,6.7854,34.2565,34.2547,34.2552,34.2553,0.38756,0.45,0.44,0.0266,,,1.2494,35.36,35.625,26.8686,26.8676,0.5245,87.7114,6.1178e+00,9.9990e+03,,,,,,,
CalCOFI,0704JD,50,463,13-Apr-2007 18:52:55,13-Apr-2007 10:52:55,34.27911,-120.02400,081.8 046.9,081.8,046.9,493.000,497.151,6.7918,6.7918,34.2563,34.2545,34.2551,34.2552,0.38670,0.45,0.44,0.0266,,,1.2527,35.47,35.734,26.8676,26.8667,0.5274,87.6479,5.5339e+00,9.9990e+03,,,,,,,
CalCOFI,0704JD,50,463,13-Apr-2007 18:52:56,13-Apr-2007 10:52:56,34.27916,-120.02400,081.8 046.9,081.8,046.9,492.000,496.142,6.7951,6.7950,34.2566,34.2548,34.2553,34.2554,0.38653,0.45,0.44,0.0263,,,1.2398,35.06,35.305,26.8674,26.8663,0.5304,87.5815,5.8446e+00,9.9990e+03,,,,,,,
CalCOFI,0704JD,50,463,13-Apr-2007 18:52:57,13-Apr-2007 10:52:57,34.27916,-120.02400,081.8 046.9,081.8,046.9,491.000,495.132,6.7958,6.7967,34.2565,34.2547,34.2551,34.2552,0.38559,0.45,0.44,0.0261,,,1.2348,34.91,35.139,26.8672,26.8659,0.5306,87.5781,6.0945e+00,9.9990e+03,,,,,,,
CalCOFI,0704JD,50,463,13-Apr-2007 18:53:00,13-Apr-2007 10:53:00,34.27916,-120.02400,081.8 046.9,081.8,046.9,490.000,494.122,6.7956,6.8008,34.2563,34.2545,34.2547,34.2548,0.37439,0.43,0.42,0.0267,,,1.2092,34.10,34.288,26.8670,26.8650,0.5293,87.6066,6.0289e+00,9.9990e+03,,,,,,,
CalCOFI,0704JD,50,463,13-Apr-2007 18:53:00,13-Apr-2007 10:53:00,34.27916,-120.02400,081.8 046.9,081.8,046.9,489.000,493.113,6.8111,6.8122,34.2556,34.2538,34.2540,34.2541,0.36137,0.42,0.41,0.0257,,,1.2023,33.89,34.058,26.8644,26.8630,0.5299,87.5930,5.6680e+00,9.9990e+03,,,,,,,
CalCOFI,0704JD,50,463,13-Apr-2007 18:53:02,13-Apr-2007 10:53:02,34.27916,-120.02400,081.8 046.9,081.8,046.9,488.000,492.103,6.8220,6.8219,34.2539,34.2521,34.2528,34.2529,0.35278,0.40,0.40,0.0261,,,1.2117,34.18,34.371,26.8616,26.8607,0.5308,87.5735,6.6058e+00,9.9990e+03,,,,,,,